COMSATBW-2

Last updated on Wed Oct 15 2025 00:02:45 GMT+0000 (Coordinated Universal Time)

1 36582U 10021B 25287.20371120 .00000075 00000+0 00000+0 0 9998 2 36582 0.0873 85.1920 0003323 144.6253 239.7554 1.00274677 56498
UTC large
Height (km)
Speed (km/s)
/
Latitude / Longitude
Inclination (degrees)
Orbital Period (minutes)
Azimuth
Elevation
Range (km)
Doppler Factor

Next 0 passes for location: London (51.5072 / 0.1276)

Sorry there are no passes over London.